Weather History for KRTS - August, 2014

Change the Weather History Date:

Friday, August 15, 2014

  Actual Average (KRNO) Record (KRNO)
Temperature  
Mean Temperature 68 °F 74 °F  
Max Temperature 84 °F 91 °F 102 °F (2003)
Min Temperature 51 °F 56 °F 35 °F (1954)
Degree Days  
Heating Degree Days 0 0  
Month to date heating degree days 0  
Since 1 June heating degree days 61  
Since 1 July heating degree days 5  
Cooling Degree Days 2 9  
Month to date cooling degree days 148  
Year to date cooling degree days 635  
Since 1 June cooling degree days 598  
Growing Degree Days 18 (Base 50)    
Moisture  
Dew Point 39 °F    
Average Humidity 37    
Maximum Humidity 67    
Minimum Humidity 16    
Precipitation  
Precipitation 0.00 in 0.01 in 0.22 in (1965)
Month to date precipitation 0.14  
Year to date precipitation 4.60  
Snow  
Snow 0.00 in 0.00 in 0.00 in ()
Month to date snowfall 0.0  
Since 1 June snowfall T  
Since 1 July snowfall 0.0  
Snow Depth -    
Sea Level Pressure  
Sea Level Pressure 30.16 in    
Wind  
Wind Speed 8 mph (NW)    
Max Wind Speed 18 mph    
Max Gust Speed 23 mph    
Visibility 10 miles    
Events      
T = Trace of Precipitation, MM = Missing Value Source: NWS Daily Summary

Daily Weather History Graph

Daily Weather History Graph

Search for Another Location

Airport or City:

Trip Planner

Search our weather history database for the weather conditions in past years. The results will help you decide how hot, cold, wet, or windy it might be!

Date:

Astronomy

Aug. 15, 2014 Rise Set
Actual Time 6:11 AM PDT 7:55 PM PDT
Civil Twilight 5:42 AM PDT 8:24 PM PDT
Nautical Twilight 5:08 AM PDT 8:58 PM PDT
Astronomical Twilight 4:30 AM PDT 9:36 PM PDT
Moon 11:02 PM PDT (8/15) 11:58 AM PDT (8/15)
Length of Visible Light 14h 41m
Length of Day
13h 43m
Waning Gibbous, 68% of the Moon is Illuminated
Aug 15
Waning Gibbous
Aug 17
Last Quarter
Aug 25
New
Sep 2
First Quarter
Sep 8
Full

Hourly Weather History & Observations

Time (PDT) Temp. Dew Point Humidity Pressure Visibility Wind Dir Wind Speed Gust Speed Precip Events Conditions
12:15 AM 60.8 °F 44.6 °F 55% 30.14 in 10.0 mi NNW 8.1 mph - N/A   Clear
12:35 AM 60.8 °F 44.6 °F 55% 30.14 in 10.0 mi NNW 10.4 mph - N/A   Clear
12:55 AM 59.0 °F 44.6 °F 59% 30.14 in 10.0 mi NNW 10.4 mph - N/A   Clear
1:15 AM 57.2 °F 42.8 °F 59% 30.14 in 10.0 mi NNW 11.5 mph - N/A   Clear
1:35 AM 57.2 °F 42.8 °F 59% 30.14 in 10.0 mi NNW 9.2 mph - N/A   Clear
1:55 AM 60.8 °F 44.6 °F 55% 30.14 in 10.0 mi North 3.5 mph - N/A   Clear
2:15 AM 59.0 °F 44.6 °F 59% 30.14 in 10.0 mi NW 10.4 mph - N/A   Clear
2:35 AM 59.0 °F 44.6 °F 59% 30.14 in 10.0 mi NW 11.5 mph - N/A   Clear
2:55 AM 60.8 °F 44.6 °F 55% 30.14 in 10.0 mi NW 11.5 mph - N/A   Clear
3:35 AM 59.0 °F 44.6 °F 59% 30.15 in 10.0 mi NW 11.5 mph - N/A   Clear
3:55 AM 60.8 °F 44.6 °F 55% 30.15 in 10.0 mi WNW 10.4 mph - N/A   Clear
4:15 AM 60.8 °F 44.6 °F 55% 30.15 in 10.0 mi NW 10.4 mph 18.4 mph N/A   Clear
4:35 AM 55.4 °F 42.8 °F 63% 30.16 in 10.0 mi NW 8.1 mph - N/A   Clear
4:55 AM 55.4 °F 42.8 °F 63% 30.16 in 10.0 mi North 8.1 mph - N/A   Clear
5:15 AM 53.6 °F 42.8 °F 67% 30.16 in 10.0 mi NNW 8.1 mph - N/A   Clear
5:35 AM 53.6 °F 42.8 °F 67% 30.16 in 10.0 mi West 6.9 mph - N/A   Clear
5:55 AM 51.8 °F 41.0 °F 67% 30.16 in 10.0 mi NNW 6.9 mph - N/A   Clear
6:15 AM 53.6 °F 41.0 °F 62% 30.17 in 10.0 mi North 3.5 mph - N/A   Clear
6:35 AM 57.2 °F 41.0 °F 55% 30.17 in 10.0 mi North 3.5 mph - N/A   Clear
6:55 AM 55.4 °F 42.8 °F 63% 30.18 in 10.0 mi Calm Calm - N/A   Clear
7:15 AM 57.2 °F 44.6 °F 63% 30.18 in 10.0 mi Calm Calm - N/A   Clear
7:35 AM 59.0 °F 44.6 °F 59% 30.19 in 10.0 mi Calm Calm - N/A   Clear
7:55 AM 60.8 °F 42.8 °F 52% 30.19 in 10.0 mi Calm Calm - N/A   Clear
8:15 AM 62.6 °F 44.6 °F 52% 30.20 in 10.0 mi Calm Calm - N/A   Clear
8:35 AM 64.4 °F 44.6 °F 49% 30.20 in 10.0 mi ESE 3.5 mph - N/A   Clear
8:55 AM 66.2 °F 42.8 °F 43% 30.20 in 10.0 mi Calm Calm - N/A   Clear
9:15 AM 66.2 °F 42.8 °F 43% 30.19 in 10.0 mi Calm Calm - N/A   Clear
9:35 AM 68.0 °F 41.0 °F 37% 30.19 in 10.0 mi SE 4.6 mph - N/A   Clear
9:55 AM 69.8 °F 41.0 °F 35% 30.19 in 10.0 mi SSW 4.6 mph - N/A   Clear
10:15 AM 71.6 °F 41.0 °F 33% 30.20 in 10.0 mi Calm Calm - N/A   Clear
10:35 AM 73.4 °F 37.4 °F 27% 30.20 in 10.0 mi SSE 4.6 mph - N/A   Clear
10:55 AM 73.4 °F 39.2 °F 29% 30.19 in 10.0 mi SE 5.8 mph - N/A   Clear
11:15 AM 75.2 °F 37.4 °F 25% 30.19 in 10.0 mi SE 8.1 mph - N/A   Clear
11:35 AM 77.0 °F 33.8 °F 21% 30.18 in 10.0 mi SE 4.6 mph - N/A   Clear
11:55 AM 77.0 °F 35.6 °F 22% 30.18 in 10.0 mi East 4.6 mph - N/A   Clear
12:15 PM 78.8 °F 33.8 °F 20% 30.17 in 10.0 mi South 11.5 mph - N/A   Clear
12:35 PM 77.0 °F 33.8 °F 21% 30.17 in 10.0 mi South 4.6 mph - N/A   Clear
12:55 PM 80.6 °F 32.0 °F 17% 30.16 in 10.0 mi West 8.1 mph 18.4 mph N/A   Clear
1:15 PM 80.6 °F 32.0 °F 17% 30.16 in 10.0 mi North 5.8 mph - N/A   Clear
1:35 PM 80.6 °F 32.0 °F 17% 30.16 in 10.0 mi Calm Calm - N/A   Clear
1:55 PM 80.6 °F 33.8 °F 18% 30.16 in 10.0 mi WSW 8.1 mph 17.3 mph N/A   Clear
2:15 PM 82.4 °F 33.8 °F 17% 30.15 in 10.0 mi West 6.9 mph 16.1 mph N/A   Clear
2:35 PM 82.4 °F 35.6 °F 19% 30.14 in 10.0 mi WSW 6.9 mph - N/A   Clear
2:55 PM 82.4 °F 33.8 °F 17% 30.14 in 10.0 mi North 12.7 mph 18.4 mph N/A   Clear
3:15 PM 84.2 °F 33.8 °F 16% 30.13 in 10.0 mi NW 9.2 mph 19.6 mph N/A   Clear
3:35 PM 84.2 °F 33.8 °F 16% 30.13 in 10.0 mi WNW 9.2 mph 17.3 mph N/A   Clear
3:55 PM 84.2 °F 35.6 °F 18% 30.13 in 10.0 mi NW 10.4 mph 19.6 mph N/A   Clear
4:15 PM 84.2 °F 35.6 °F 18% 30.13 in 10.0 mi North 12.7 mph 19.6 mph N/A   Clear
4:35 PM 84.2 °F 35.6 °F 18% 30.13 in 10.0 mi WNW 9.2 mph 20.7 mph N/A   Clear
4:55 PM 84.2 °F 35.6 °F 18% 30.13 in 10.0 mi NNW 15.0 mph 19.6 mph N/A   Clear
5:15 PM 84.2 °F 37.4 °F 19% 30.13 in 10.0 mi WNW 16.1 mph 20.7 mph N/A   Clear
5:35 PM 82.4 °F 37.4 °F 20% 30.13 in 10.0 mi WNW 18.4 mph 23.0 mph N/A   Clear
5:55 PM 82.4 °F 35.6 °F 19% 30.12 in 10.0 mi NW 15.0 mph 20.7 mph N/A   Clear
6:15 PM 82.4 °F 37.4 °F 20% 30.12 in 10.0 mi NW 16.1 mph 21.9 mph N/A   Clear
6:35 PM 80.6 °F 35.6 °F 20% 30.13 in 10.0 mi WNW 13.8 mph 21.9 mph N/A   Clear
7:15 PM 78.8 °F 35.6 °F 21% 30.13 in 10.0 mi NW 13.8 mph 20.7 mph N/A   Clear
7:35 PM 77.0 °F 35.6 °F 22% 30.14 in 10.0 mi NW 18.4 mph - N/A   Clear
7:55 PM 75.2 °F 35.6 °F 24% 30.14 in 10.0 mi WNW 15.0 mph 23.0 mph N/A   Clear
8:15 PM 73.4 °F 35.6 °F 25% 30.15 in 10.0 mi WNW 13.8 mph 19.6 mph N/A   Clear
8:35 PM 73.4 °F 37.4 °F 27% 30.16 in 10.0 mi WNW 10.4 mph - N/A   Clear
9:15 PM 69.8 °F 39.2 °F 33% 30.17 in 10.0 mi WNW 9.2 mph - N/A   Clear
9:35 PM 69.8 °F 39.2 °F 33% 30.18 in 10.0 mi West 6.9 mph - N/A   Clear
9:55 PM 71.6 °F 39.2 °F 31% 30.18 in 10.0 mi NW 4.6 mph - N/A   Clear
10:15 PM 71.6 °F 39.2 °F 31% 30.19 in 10.0 mi WNW 3.5 mph - N/A   Clear
10:35 PM 71.6 °F 37.4 °F 29% 30.19 in 10.0 mi WNW 17.3 mph 23.0 mph N/A   Clear
10:55 PM 71.6 °F 37.4 °F 29% 30.19 in 10.0 mi WNW 10.4 mph 18.4 mph N/A   Clear
11:15 PM 68.0 °F 39.2 °F 35% 30.19 in 10.0 mi NW 3.5 mph - N/A   Clear
11:35 PM 64.4 °F 39.2 °F 40% 30.19 in 10.0 mi NW 5.8 mph - N/A   Clear
11:55 PM 64.4 °F 39.2 °F 40% 30.19 in 10.0 mi WNW 10.4 mph - N/A   Clear